Flag for Poland Weather past 2 weeks in Słupsk, Poland

Now
57 °F

Overcast.


Feels Like: 57 °F
Forecast: 57 / 67 °F
Wind: 2 mph from Southeast

Location: Leba

Current Time: Aug 30, 2014 at 8:21:40 AM

Latest Report: Aug 30, 2014 at 7:00 AM


Visibility: 13 mi

Pressure: 29.93 "Hg

Humidity: 91%

Dew point: 55 °F

Location of SłupskLocation

Historic Weather in Słupsk — Graph

°F

Słupsk temperature yesterday

Maximum temperature yesterday: 66 °F (at 12:00 PM)
Minimum temperature yesterday: 50 °F (at 5:00 AM)
Average temperature yesterday: 60 °F

Past Weeks' High & Low Weather Summary

 TemperatureHumidityPressure
High69 °F (Aug 15, 11:00 AM)97% (Aug 29, 6:00 AM)30.01 "Hg (Aug 29, 6:00 AM)
Low46 °F (Aug 24, 6:00 AM)52% (Aug 22, 12:00 PM)29.54 "Hg (Aug 18, 7:00 PM)
Average59 °F77%29.82 "Hg
* Reported Aug 15 7:00 AM — Aug 30 7:00 AM, Słupsk, Weather by CustomWeather, © 2014

Note: Actual official high and low records may vary slightly from our data, if they occured in-between our weather recording intervals... More about our weather records

Advertising

Słupsk weather history for previous 24 hours

 ConditionsComfort  
Time TempWeatherWind HumidityBarometerVisibility
7:00 AM
Aug 30
57 °FOvercast.2 mph91%29.93 "Hg12 mi
6:00 AM58 °FSprinkles. Overcast.2 mph86%29.93 "Hg7 mi
5:00 AM58 °FOvercast.2 mph84%29.93 "Hg12 mi
4:00 AM58 °FOvercast.2 mph85%29.93 "Hg12 mi
3:00 AM57 °FOvercast.2 mph88%29.94 "Hg12 mi
2:00 AM58 °FOvercast.1 mph85%29.95 "Hg12 mi
1:00 AM58 °FOvercast.2 mph82%29.95 "Hg12 mi
12:00 AM58 °FOvercast.3 mph82%29.95 "Hg12 mi
11:00 PM
Aug 29
58 °FOvercast.2 mph88%29.96 "Hg12 mi
9:00 PM58 °FOvercast.3 mph86%29.96 "Hg12 mi
8:00 PM61 °FOvercast.3 mph81%29.96 "Hg12 mi
7:00 PM62 °FOvercast.5 mph76%29.96 "Hg12 mi
6:00 PM63 °FOvercast.5 mph79%29.98 "Hg12 mi
5:00 PM64 °FOvercast.3 mph72%29.98 "Hg12 mi
4:00 PM65 °FPartly sunny.3 mph69%29.98 "Hg12 mi
3:00 PM65 °FPartly sunny.3 mph74%29.99 "Hg12 mi
2:00 PM66 °FScattered clouds.3 mph72%30.00 "Hg12 mi
1:00 PM66 °FScattered clouds.3 mph75%30.00 "Hg12 mi
12:00 PM66 °FScattered clouds.3 mph74%30.01 "Hg12 mi
11:00 AM65 °FPassing clouds.3 mph76%30.01 "Hg12 mi
10:00 AM62 °FPassing clouds.2 mph84%30.01 "Hg12 mi
9:00 AM59 °FPassing clouds.2 mph86%30.01 "Hg12 mi
8:00 AM55 °FPassing clouds.3 mph91%30.01 "Hg12 mi
Weather by CustomWeather, © 2014

See weather overviewHow to use our weather pages